This is the latest recevied weather packets stored in our database for station/object N2XGL-1. If no packets are shown the sender has not sent any weather packets the latest 1 day(s).
| Time | Temp. | Humidity | Pressure | Rain* | Wind** | Luminosity | Snow |
|---|---|---|---|---|---|---|---|
| 1778107559 | 5° C | 72% | 1019.7 hPa | 0 mm | - | - | - |
| 1778106473 | 5° C | 72% | 1019.8 hPa | 0 mm | - | - | - |
| 1778098144 | 3.89° C | 78% | 1021.7 hPa | 2.29 mm | - | - | - |
| 1778097557 | 3.33° C | 73% | 1021.7 hPa | 3.05 mm | - | - | - |
| 1778095494 | 3.89° C | 80% | 1021.9 hPa | 5.33 mm | - | - | - |
| 1778090706 | 3.33° C | 85% | 1022.5 hPa | 3.56 mm | - | - | - |
| 1778089154 | 2.78° C | 89% | 1022.4 hPa | 1.78 mm | - | - | - |
| 1778088420 | 2.22° C | 89% | 1022.5 hPa | 1.52 mm | - | - | - |
| 1778085699 | 0.56° C | 93% | 1022.2 hPa | 1.52 mm | - | - | - |
| 1778081846 | 0.56° C | 94% | 1021.6 hPa | 0.76 mm | - | - | - |
| 1778080817 | 0° C | 94% | 1021.4 hPa | 0.25 mm | - | - | - |
| 1778079836 | 0° C | 95% | 1021.3 hPa | 0.25 mm | - | - | - |
| 1778076904 | 0° C | 95% | 1020.9 hPa | 0 mm | - | - | - |
| 1778076461 | 0° C | 95% | 1020.9 hPa | 0 mm | - | - | - |
| 1778074826 | 0° C | 95% | 1020.6 hPa | 0 mm | - | - | - |
| 1778072266 | 0° C | 95% | 1019.9 hPa | 0 mm | - | - | - |
| 1778071079 | 0° C | 95% | 1019.7 hPa | 0 mm | - | - | - |
| 1778064905 | 0° C | 95% | 1018.5 hPa | 0 mm | - | - | - |
| 1778061005 | 0° C | 95% | 1018.5 hPa | 0 mm | - | - | - |
| 1778060996 | 0° C | 95% | 1018.5 hPa | 0 mm | - | - | - |
| 1778060354 | 0° C | 95% | 1018 hPa | 0 mm | - | - | - |
| 1778058841 | 0° C | 95% | 1018.3 hPa | 0 mm | - | - | - |
| 1778058251 | 0° C | 95% | 1018.3 hPa | 0 mm | - | - | - |
| 1778057960 | 0° C | 95% | 1018.2 hPa | 0.25 mm | - | - | - |
| 1778057721 | 0° C | 95% | 1018.2 hPa | 0.25 mm | - | - | - |
* Rain latest hour (hover to see other rain measurements)
** Current wind speed in m/s (hover to see current wind gust speed)